Howell, MI

5:35 AM EDT on April 24, 2018 (GMT -0400)
Livingston County

Weather History for KOZW - January, 2014

Change the Weather History Date:

Sunday, January 12, 2014

  Actual Average Record
Temperature  
Mean Temperature 34 °F -  
Max Temperature 38 °F 28 °F 60 °F (2013)
Min Temperature 31 °F 16 °F 7 °F (2015)
Degree Days  
Heating Degree Days 31    
Moisture  
Dew Point 27 °F    
Average Humidity 80    
Maximum Humidity 88    
Minimum Humidity 63    
Precipitation  
Precipitation 0.00 in - - ()
Sea Level Pressure  
Sea Level Pressure 29.77 in    
Wind  
Wind Speed 13 mph (SW)    
Max Wind Speed 21 mph    
Max Gust Speed 29 mph    
Visibility 10 miles    
Events      
Averages and records for this station are not official NWS values.
T = Trace of Precipitation, MM = Missing Value Source: NWS Daily Summary

Daily Weather History Graph

Daily Weather History Graph

Search for Another Location

Airport or City:

Astronomy

Jan. 12, 2014 Rise Set
Actual Time 8:04 AM EST 5:24 PM EST
Civil Twilight 7:33 AM EST 5:55 PM EST
Nautical Twilight 6:58 AM EST 6:30 PM EST
Astronomical Twilight 6:24 AM EST 7:04 PM EST
Moon 2:52 PM EST (1/12) 5:01 AM EST (1/12)
Length of Visible Light 10h 22m
Length of Day
9h 19m
Waxing Gibbous, 89% of the Moon is Illuminated
Jan 12
Waxing Gibbous
Jan 15
Full
Jan 24
Last Quarter
Jan 30
New
Feb 6
First Quarter

Hourly Weather History & Observations

Time (EST) Temp. Windchill Dew Point Humidity Pressure Visibility Wind Dir Wind Speed Gust Speed Precip Events Conditions
12:15 AM 31.6 °F 20.7 °F 28.0 °F 87% 29.63 in 7.0 mi West 16.1 mph 25.3 mph N/A   Overcast
12:35 AM 31.6 °F 21.6 °F 28.0 °F 87% 29.63 in 7.0 mi West 13.8 mph 20.7 mph N/A   Overcast
12:55 AM 31.6 °F 21.6 °F 28.0 °F 87% 29.65 in 7.0 mi West 13.8 mph - N/A   Overcast
1:15 AM 31.8 °F 19.6 °F 27.9 °F 85% 29.65 in 7.0 mi West 20.7 mph 27.6 mph N/A   Overcast
1:35 AM 31.5 °F 19.4 °F 27.5 °F 85% 29.66 in 10.0 mi West 19.6 mph 28.8 mph N/A   Overcast
1:55 AM 31.5 °F 21.8 °F 27.3 °F 85% 29.67 in 10.0 mi West 12.7 mph - N/A   Overcast
2:15 AM 31.5 °F 20.5 °F 27.5 °F 85% 29.68 in 10.0 mi West 16.1 mph 21.9 mph N/A   Overcast
2:35 AM 31.5 °F 21.4 °F 27.5 °F 85% 29.68 in 10.0 mi West 13.8 mph 17.3 mph N/A   Overcast
2:55 AM 31.6 °F 21.2 °F 27.3 °F 84% 29.69 in 10.0 mi West 15.0 mph 20.7 mph N/A   Overcast
3:15 AM 31.8 °F 23.3 °F 27.3 °F 83% 29.70 in 10.0 mi West 10.4 mph - N/A   Overcast
3:35 AM 32.0 °F 23.0 °F 27.3 °F 83% 29.71 in 10.0 mi West 11.5 mph - N/A   Overcast
3:55 AM 32.0 °F 23.0 °F 27.5 °F 83% 29.72 in 10.0 mi West 11.5 mph - N/A   Overcast
4:15 AM 32.0 °F 22.5 °F 27.7 °F 84% 29.73 in 10.0 mi West 12.7 mph 18.4 mph N/A   Overcast
4:35 AM 32.0 °F 23.0 °F 28.0 °F 85% 29.73 in 10.0 mi West 11.5 mph 17.3 mph N/A   Overcast
4:54 AM 32.0 °F 23.0 °F 28.4 °F 87% 29.73 in 7.0 mi West 11.5 mph - N/A   Overcast
5:15 AM 32.0 °F 21.2 °F 28.0 °F 85% 29.74 in 10.0 mi West 16.1 mph 20.7 mph N/A   Overcast
5:35 AM 32.0 °F 22.1 °F 28.2 °F 86% 29.76 in 10.0 mi West 13.8 mph 17.3 mph N/A   Overcast
5:55 AM 32.0 °F 22.5 °F 27.5 °F 83% 29.77 in 10.0 mi West 12.7 mph 20.7 mph N/A   Overcast
6:15 AM 32.0 °F 21.2 °F 27.3 °F 83% 29.78 in 10.0 mi West 16.1 mph - N/A   Overcast
6:35 AM 31.8 °F 22.8 °F 27.0 °F 82% 29.78 in 10.0 mi West 11.5 mph - N/A   Overcast
6:55 AM 31.6 °F 24.4 °F 26.6 °F 82% 29.79 in 10.0 mi WSW 8.1 mph - N/A   Overcast
7:15 AM 31.6 °F 26.0 °F 26.6 °F 82% 29.80 in 10.0 mi WSW 5.8 mph - N/A   Overcast
7:35 AM 31.5 °F 24.2 °F 26.4 °F 82% 29.80 in 10.0 mi WSW 8.1 mph - N/A   Overcast
7:55 AM 31.3 °F 24.7 °F 26.2 °F 82% 29.81 in 10.0 mi WSW 6.9 mph - N/A   Overcast
8:15 AM 31.1 °F 23.1 °F 25.9 °F 81% 29.82 in 10.0 mi WSW 9.2 mph - N/A   Overcast
8:35 AM 31.1 °F 23.7 °F 25.7 °F 80% 29.83 in 10.0 mi WSW 8.1 mph - N/A   Overcast
8:54 AM 31.3 °F 23.3 °F 25.7 °F 80% 29.84 in 10.0 mi WSW 9.2 mph - N/A   Overcast
9:15 AM 31.5 °F 23.5 °F 26.1 °F 80% 29.86 in 10.0 mi WSW 9.2 mph - N/A   Overcast
9:34 AM 31.1 °F 22.4 °F 25.7 °F 80% 29.86 in 10.0 mi WSW 10.4 mph 18.4 mph N/A   Overcast
9:55 AM 31.6 °F 23.1 °F 25.7 °F 79% 29.87 in 10.0 mi WSW 10.4 mph - N/A   Mostly Cloudy
10:15 AM 32.0 °F 24.2 °F 26.1 °F 79% 29.88 in 10.0 mi SW 9.2 mph - N/A   Mostly Cloudy
10:35 AM 32.2 °F 22.7 °F 26.6 °F 80% 29.89 in 10.0 mi WSW 12.7 mph - N/A   Scattered Clouds
10:55 AM 32.2 °F 23.8 °F 26.6 °F 80% 29.89 in 7.0 mi SW 10.4 mph 16.1 mph N/A   Clear
11:15 AM 32.9 °F 24.1 °F 26.6 °F 78% 29.90 in 7.0 mi SW 11.5 mph - N/A   Clear
11:35 AM 32.9 °F 23.7 °F 26.2 °F 76% 29.89 in 10.0 mi SSW 12.7 mph - N/A   Clear
11:55 AM 33.3 °F 23.7 °F 26.2 °F 75% 29.87 in 10.0 mi SSW 13.8 mph 19.6 mph N/A   Clear
12:15 PM 33.8 °F 26.4 °F 26.6 °F 75% 29.86 in 10.0 mi South 9.2 mph - N/A   Clear
12:35 PM 34.9 °F 26.2 °F 26.4 °F 71% 29.86 in 10.0 mi SW 12.7 mph 16.1 mph N/A   Clear
12:55 PM 34.7 °F 26.9 °F 26.4 °F 72% 29.85 in 10.0 mi South 10.4 mph - N/A   Clear
1:15 PM 35.4 °F 27.8 °F 26.6 °F 70% 29.83 in 10.0 mi SSW 10.4 mph - N/A   Clear
1:35 PM 35.8 °F 27.8 °F 26.6 °F 69% 29.83 in 10.0 mi South 11.5 mph - N/A   Clear
1:55 PM 35.6 °F 29.2 °F 26.2 °F 69% 29.82 in 10.0 mi South 8.1 mph - N/A   Clear
2:15 PM 36.5 °F 29.7 °F 26.2 °F 66% 29.80 in 10.0 mi South 9.2 mph - N/A   Clear
2:35 PM 37.2 °F 29.1 °F 26.1 °F 64% 29.79 in 10.0 mi South 12.7 mph - N/A   Clear
2:55 PM 37.6 °F 30.5 °F 25.9 °F 63% 29.79 in 10.0 mi South 10.4 mph - N/A   Clear
3:15 PM 37.6 °F 30.5 °F 26.6 °F 65% 29.81 in 10.0 mi South 10.4 mph - N/A   Clear
3:35 PM 36.7 °F 30.5 °F 27.1 °F 68% 29.82 in 10.0 mi South 8.1 mph 16.1 mph N/A   Clear
3:54 PM 36.0 °F 28.0 °F 26.8 °F 69% 29.82 in 10.0 mi South 11.5 mph - N/A   Clear
4:15 PM 35.4 °F 26.4 °F 27.0 °F 71% 29.81 in 10.0 mi South 13.8 mph - N/A   Clear
4:35 PM 34.3 °F 26.5 °F 27.3 °F 76% 29.80 in 10.0 mi SSE 10.4 mph - N/A   Clear
4:55 PM 33.3 °F 23.7 °F 27.1 °F 78% 29.80 in 10.0 mi SSE 13.8 mph 17.3 mph N/A   Clear
5:15 PM 32.4 °F 22.5 °F 27.1 °F 81% 29.80 in 10.0 mi SSE 13.8 mph - N/A   Clear
5:35 PM 32.0 °F 23.6 °F 27.0 °F 82% 29.81 in 10.0 mi South 10.4 mph 17.3 mph N/A   Clear
5:55 PM 32.0 °F 21.6 °F 27.1 °F 82% 29.80 in 10.0 mi South 15.0 mph 23.0 mph N/A   Clear
6:14 PM 31.8 °F 21.4 °F 27.3 °F 83% 29.79 in 10.0 mi SSE 15.0 mph 19.6 mph N/A   Clear
6:35 PM 32.0 °F 21.6 °F 27.9 °F 85% 29.78 in 10.0 mi South 15.0 mph 21.9 mph N/A   Clear
6:55 PM 32.0 °F 20.8 °F 28.2 °F 86% 29.78 in 10.0 mi South 17.3 mph 23.0 mph N/A   Clear
7:15 PM 32.0 °F 20.5 °F 28.6 °F 87% 29.77 in 10.0 mi South 18.4 mph 24.2 mph N/A   Clear
7:35 PM 32.4 °F 21.3 °F 29.1 °F 88% 29.75 in 10.0 mi South 17.3 mph 27.6 mph N/A   Clear
7:55 PM 32.9 °F 23.2 °F 29.3 °F 87% 29.74 in 10.0 mi South 13.8 mph 25.3 mph N/A   Clear
8:15 PM 33.1 °F 21.9 °F 29.3 °F 86% 29.73 in 10.0 mi South 18.4 mph 26.5 mph N/A   Clear
8:34 PM 33.6 °F 23.7 °F 29.7 °F 85% 29.73 in 10.0 mi South 15.0 mph 25.3 mph N/A   Clear
8:55 PM 33.8 °F 25.3 °F 29.3 °F 84% 29.73 in 10.0 mi South 11.5 mph 23.0 mph N/A   Clear
9:14 PM 34.5 °F 24.5 °F 29.3 °F 81% 29.72 in 10.0 mi South 16.1 mph 24.2 mph N/A   Clear
9:35 PM 35.1 °F 27.4 °F 29.1 °F 79% 29.75 in 10.0 mi SSW 10.4 mph 19.6 mph N/A   Clear
9:55 PM 35.8 °F 27.8 °F 29.3 °F 77% 29.75 in 10.0 mi SSW 11.5 mph 20.7 mph N/A   Clear
10:15 PM 35.6 °F 26.2 °F 29.3 °F 78% 29.73 in 10.0 mi South 15.0 mph 21.9 mph N/A   Clear
10:35 PM 36.0 °F 26.3 °F 29.7 °F 78% 29.72 in 10.0 mi South 16.1 mph 23.0 mph N/A   Clear
10:55 PM 36.0 °F 27.5 °F 29.5 °F 77% 29.73 in 10.0 mi South 12.7 mph 18.4 mph N/A   Clear
11:15 PM 36.1 °F 27.7 °F 29.5 °F 77% 29.72 in 10.0 mi South 12.7 mph 18.4 mph N/A   Clear
11:35 PM 36.5 °F 27.4 °F 29.5 °F 76% 29.71 in 10.0 mi South 15.0 mph 20.7 mph N/A   Clear
11:55 PM 36.9 °F 29.1 °F 29.3 °F 74% 29.70 in 10.0 mi South 11.5 mph 18.4 mph N/A   Clear